Terminal Aerodrome Forecast
Issued by NWS

Home | Current Version | Previous Version | Text Only | Print | Product List | Glossary On
Versions: 1 2 3 4 5 6 7 8 9 10 11 12 13 14 15 16
000
FTUS41 KGYX 210521
TAFRKD
TAF
KRKD 210521Z 2106/2206 21012KT P6SM BKN050
     FM210900 21008KT 2SM BR BKN007
     FM211400 19010KT 3SM -RA BR OVC003
     FM220300 VRB03KT 1SM BR OVC004
      AMD LTD TO CLD VIS AND WIND=

USA.gov is the U.S. government's official web portal to all federal, state and local government web resources and services.